Location: Newark
(40.7360°N, 74.1730°W)
Time: 18:12:40
(UTC-05:00)

ISS - All Passes

Search period start: 30 January 2015 00:00
Search period end: 09 February 2015 00:00
Orbit: 400 x 408 km, 51.6° (Epoch: 30 January)

Date Brightness Start Highest point End Pass type
(mag) Time Alt. Az. Time Alt. Az. Time Alt. Az.
30 Jan - 01:23:39 10° NNW 01:25:20 13° N 01:27:03 10° NE night (unlit)
30 Jan - 02:59:37 10° NW 03:02:37 31° NNE 03:05:37 10° E night (unlit)
30 Jan - 04:36:05 10° WNW 04:39:06 33° SW 04:42:07 10° SSE visible
30 Jan - 21:15:12 10° SW 21:18:28 84° SE 21:21:46 10° NE night (unlit)
30 Jan - 22:52:48 10° WNW 22:55:18 20° NNW 22:57:48 10° NNE night (unlit)
31 Jan - 00:31:15 10° NNW 00:32:46 12° N 00:34:16 10° NNE night (unlit)
31 Jan - 02:07:32 10° NNW 02:10:10 22° NNE 02:12:49 10° ENE night (unlit)
31 Jan - 03:43:38 10° WNW 03:46:55 67° SW 03:50:11 10° SE night (unlit)
31 Jan - 20:23:08 10° SSW 20:26:14 41° SE 20:29:21 10° ENE night (unlit)
31 Jan - 21:59:56 10° W 22:02:49 27° NNW 22:05:41 10° NE night (unlit)
31 Jan - 23:38:31 10° NW 23:40:08 13° N 23:41:44 10° NNE night (unlit)
01 Feb - 01:15:24 10° NNW 01:17:38 17° NNE 01:19:51 10° ENE night (unlit)
01 Feb - 02:51:20 10° NW 02:54:37 63° NNE 02:57:53 10° ESE night (unlit)
01 Feb - 04:28:54 10° W 04:30:47 14° SW 04:32:34 10° SSW night (unlit)
01 Feb - 19:31:29 10° S 19:34:02 21° SE 19:36:38 10° E visible
01 Feb - 21:07:13 10° WSW 21:10:21 42° NNW 21:13:30 10° NE night (unlit)
01 Feb - 22:45:33 10° NW 22:47:29 14° N 22:49:25 10° NNE night (unlit)
02 Feb - 00:23:12 10° NNW 00:25:01 14° N 00:26:50 10° NE night (unlit)
02 Feb - 01:59:07 10° NW 02:02:12 36° NNE 02:05:18 10° E night (unlit)
02 Feb - 03:35:45 10° WNW 03:38:36 26° SW 03:41:25 10° SSE night (unlit)
02 Feb - 18:40:52 10° SSE 18:41:51 11° SE 18:42:58 10° ESE visible
02 Feb - 20:14:40 10° WSW 20:17:56 78° NW 20:21:14 10° NE visible
02 Feb - 21:52:31 10° WNW 21:54:51 18° NNW 21:57:12 10° NNE night (unlit)
02 Feb - 23:30:48 10° NNW 23:32:19 13° N 23:33:52 10° NNE night (unlit)
03 Feb - 01:06:55 10° NW 01:09:41 24° NNE 01:12:28 10° E night (unlit)
03 Feb - 02:43:07 10° WNW 02:46:20 52° SW 02:49:33 10° SE night (unlit)
03 Feb - 19:22:24 10° SW 19:25:35 53° SE 19:28:48 10° ENE visible
03 Feb - 20:59:29 10° W 21:02:14 24° NNW 21:04:59 10° NNE night (unlit)
03 Feb - 22:38:04 10° NNW 22:39:36 13° N 22:41:08 10° NNE night (unlit)
04 Feb - 00:14:43 10° NNW 00:17:04 18° NNE 00:19:26 10° ENE night (unlit)
04 Feb - 01:50:40 10° NW 01:53:58 79° NE 01:57:16 10° ESE night (unlit)
04 Feb - 03:28:57 10° WSW 03:30:03 11° SW 03:31:02 10° SSW night (unlit)
04 Feb - 18:30:29 10° SSW 18:33:16 27° SE 18:36:06 10° ENE visible
04 Feb - 20:06:36 10° W 20:09:39 36° NNW 20:12:44 10° NE visible
04 Feb - 21:45:04 10° NW 21:46:52 14° N 21:48:38 10° NNE night (unlit)
04 Feb - 23:22:26 10° NNW 23:24:22 15° N 23:26:19 10° NE night (unlit)
05 Feb - 00:58:19 10° NW 01:01:30 43° NNE 01:04:39 10° ESE night (unlit)
05 Feb - 02:35:11 10° W 02:37:48 21° SW 02:40:21 10° S night (unlit)
05 Feb - 17:39:13 10° SSE 17:40:59 14° SE 17:42:50 10° E daylight
05 Feb - 19:13:54 10° WSW 19:17:07 63° NW 19:20:23 10° NE visible
05 Feb - 20:51:55 10° WNW 20:54:07 16° NNW 20:56:18 10° NNE night (unlit)
05 Feb - 22:30:01 10° NNW 22:31:36 13° N 22:33:12 10° NE night (unlit)
06 Feb - 00:06:02 10° NW 00:08:54 27° NNE 00:11:47 10° E night (unlit)
06 Feb - 01:42:20 10° WNW 01:45:27 41° SW 01:48:34 10° SSE night (unlit)
06 Feb - 18:21:25 10° SW 18:24:38 67° SE 18:27:55 10° ENE visible
06 Feb - 19:58:47 10° WNW 20:01:23 21° NNW 20:03:59 10° NNE visible
06 Feb - 21:37:18 10° NNW 21:38:47 12° N 21:40:16 10° NNE night (unlit)
06 Feb - 23:13:43 10° NNW 23:16:12 20° NNE 23:18:43 10° ENE night (unlit)
07 Feb - 00:49:44 10° NW 00:53:02 84° SW 00:56:19 10° SE night (unlit)
07 Feb - 17:29:16 10° SSW 17:32:13 33° SE 17:35:13 10° ENE daylight
07 Feb - 19:05:44 10° W 19:08:41 31° NNW 19:11:40 10° NE visible
07 Feb - 20:44:16 10° NW 20:45:56 13° N 20:47:36 10° NNE visible
07 Feb - 22:21:23 10° NNW 22:23:26 15° NNE 22:25:30 10° NE night (unlit)
07 Feb - 23:57:15 10° NW 00:00:28 52° NNE 00:03:42 10° ESE night (unlit)
08 Feb - 01:34:25 10° W 01:36:42 17° SW 01:38:56 10° S night (unlit)
08 Feb - 16:37:37 10° S 16:39:49 17° SE 16:42:05 10° E daylight
08 Feb - 18:12:51 10° WSW 18:16:02 51° NNW 18:19:15 10° NE visible
08 Feb - 19:51:02 10° NW 19:53:05 15° NNW 19:55:07 10° NNE visible
08 Feb - 21:28:55 10° NNW 21:30:35 13° N 21:32:15 10° NE night (unlit)
08 Feb - 23:04:50 10° NW 23:07:49 31° NNE 23:10:48 10° E night (unlit)
